{"data":{"norad_id":68885,"epoch":"2026-09-19T05:29:51.885600Z","epoch_age_seconds":125328,"freshness":"FRESH","line1":"1 68885U 26095X   26262.22907275  .00002159  00000+0  31209-3 0  9993","line2":"2 68885  51.9008 199.8150 0000756  83.1065 276.9983 14.79929502 21470","mean_motion":14.79929502,"eccentricity":7.56e-5,"inclination_deg":51.9008,"raan_deg":199.815,"arg_perigee_deg":83.1065,"mean_anomaly_deg":276.9983,"bstar":0.00031209,"rev_number":2147,"period_min":97.301932156495,"perigee_km":629.01689063037,"apogee_km":630.0764524015,"semimajor_km":7007.6836715159,"source":"CELESTRAK","updated_at":"2026-09-20T09:00:24.540172Z"}}